Terug naar catalogus

STARLINK-35608

ActiefCommunicatieVLEO
NORAD 66508·PAYLOAD·🇺🇸 United States

Gelanceerd Nov 15, 2025 vanaf Cape Canaveral Space Force Station

Loading…

Volgende Passages (komende 24 uur)

TLE

VersSource: CelesTrak SupGP

Epoch: Sep 15, 2026, 02:48 UTC

1 66508C 25263Z   26258.11715278  .00026805  00000+0  97057-3 0  2587
2 66508  43.0041   0.9986 0001894 271.5285 256.9583 15.27574976    15

Volg STARLINK-35608 in realtime met AllMySat

Download on the App Store